Time,TemperatureF,DewpointF,PressureIn,WindDirection,WindDirectionDegrees,WindSpeedMPH,WindSpeedGustMPH,Humidity,HourlyPrecipIn,Conditions,Clouds,dailyrainin,SoftwareType,DateUTC
2014-01-12 00:03:00,42.1,40.0,29.73,SSW,203,1.1,1.1,92,0.00,,,0.00,WUHU216HW,2014-01-12 08:03:00,
2014-01-12 00:08:00,42.1,40.0,29.74,SE,135,0.7,1.6,92,0.00,,,0.00,WUHU216HW,2014-01-12 08:08:00,
2014-01-12 00:13:00,42.1,40.0,29.75,SSW,203,0.0,1.6,92,0.00,,,0.00,WUHU216HW,2014-01-12 08:13:00,
2014-01-12 00:18:00,42.1,39.7,29.75,SW,225,0.9,0.9,91,0.00,,,0.00,WUHU216HW,2014-01-12 08:18:00,
2014-01-12 00:23:00,42.1,39.7,29.75,SSW,203,0.4,2.2,91,0.00,,,0.00,WUHU216HW,2014-01-12 08:23:00,
2014-01-12 00:28:00,42.1,39.7,29.75,WSW,248,2.0,2.2,91,0.00,,,0.00,WUHU216HW,2014-01-12 08:28:00,
2014-01-12 00:33:00,42.1,39.7,29.75,South,180,1.1,2.5,91,0.00,,,0.00,WUHU216HW,2014-01-12 08:33:00,
2014-01-12 00:38:00,41.9,39.5,29.77,NNW,338,0.4,2.5,91,0.00,,,0.00,WUHU216HW,2014-01-12 08:38:00,
2014-01-12 00:43:00,41.9,39.5,29.77,NE,45,0.0,1.8,91,0.00,,,0.00,WUHU216HW,2014-01-12 08:43:00,
2014-01-12 00:48:00,41.9,39.5,29.77,NE,45,0.0,1.1,91,0.00,,,0.00,WUHU216HW,2014-01-12 08:48:00,
2014-01-12 00:53:00,41.8,39.3,29.77,SW,225,0.4,1.1,91,0.00,,,0.00,WUHU216HW,2014-01-12 08:53:00,
2014-01-12 00:58:00,41.9,39.5,29.78,South,180,1.1,1.6,91,0.00,,,0.00,WUHU216HW,2014-01-12 08:58:00,
2014-01-12 01:03:00,41.8,39.3,29.78,WSW,248,0.0,1.6,91,0.00,,,0.00,WUHU216HW,2014-01-12 09:03:00,
2014-01-12 01:08:00,41.8,39.3,29.78,SSE,158,0.0,1.3,91,0.00,,,0.00,WUHU216HW,2014-01-12 09:08:00,
2014-01-12 01:13:00,41.8,39.3,29.79,WSW,248,0.4,1.3,91,0.00,,,0.00,WUHU216HW,2014-01-12 09:13:00,
2014-01-12 01:18:00,41.8,39.3,29.80,SSE,158,0.7,1.1,91,0.00,,,0.00,WUHU216HW,2014-01-12 09:18:00,
2014-01-12 01:23:00,41.8,39.3,29.81,WSW,248,0.4,1.1,91,0.00,,,0.00,WUHU216HW,2014-01-12 09:23:00,
2014-01-12 01:28:00,41.9,39.5,29.81,SSW,203,0.7,1.6,91,0.00,,,0.00,WUHU216HW,2014-01-12 09:28:00,
2014-01-12 01:33:00,42.1,39.7,29.81,SSW,203,0.0,3.4,91,0.00,,,0.00,WUHU216HW,2014-01-12 09:33:00,
2014-01-12 01:38:00,42.1,39.7,29.81,WNW,293,0.4,3.4,91,0.00,,,0.00,WUHU216HW,2014-01-12 09:38:00,
2014-01-12 01:43:00,42.1,39.7,29.81,WSW,248,1.6,1.6,91,0.00,,,0.00,WUHU216HW,2014-01-12 09:43:00,
2014-01-12 01:48:00,42.3,39.6,29.82,West,270,1.6,4.0,90,0.00,,,0.00,WUHU216HW,2014-01-12 09:48:00,
2014-01-12 01:53:00,42.5,39.5,29.82,SSW,203,1.1,4.0,89,0.00,,,0.00,WUHU216HW,2014-01-12 09:53:00,
2014-01-12 01:58:00,42.5,39.2,29.83,West,270,2.2,3.1,88,0.00,,,0.00,WUHU216HW,2014-01-12 09:58:00,
2014-01-12 02:03:00,42.7,39.1,29.83,WSW,248,4.7,4.7,87,0.00,,,0.00,WUHU216HW,2014-01-12 10:03:00,
2014-01-12 02:08:00,42.8,39.3,29.84,WSW,248,2.5,4.7,87,0.00,,,0.00,WUHU216HW,2014-01-12 10:08:00,
2014-01-12 02:13:00,42.8,39.3,29.85,WSW,248,0.7,3.4,87,0.00,,,0.00,WUHU216HW,2014-01-12 10:13:00,
2014-01-12 02:18:00,42.8,39.3,29.86,West,270,1.1,2.7,87,0.00,,,0.00,WUHU216HW,2014-01-12 10:18:00,
2014-01-12 02:23:00,42.8,39.3,29.86,West,270,0.0,2.2,87,0.00,,,0.00,WUHU216HW,2014-01-12 10:23:00,
2014-01-12 02:28:00,42.7,39.1,29.86,WSW,248,0.0,1.1,87,0.00,,,0.00,WUHU216HW,2014-01-12 10:28:00,
2014-01-12 02:33:00,42.7,39.3,29.86,WSW,248,0.0,0.9,88,0.00,,,0.00,WUHU216HW,2014-01-12 10:33:00,
2014-01-12 02:38:00,42.5,38.9,29.87,WSW,248,0.4,2.5,87,0.00,,,0.00,WUHU216HW,2014-01-12 10:38:00,
2014-01-12 02:43:00,42.5,39.2,29.88,South,180,0.7,2.5,88,0.00,,,0.00,WUHU216HW,2014-01-12 10:43:00,
2014-01-12 02:48:00,42.5,39.2,29.88,South,180,0.9,1.1,88,0.00,,,0.00,WUHU216HW,2014-01-12 10:48:00,
2014-01-12 02:53:00,42.3,39.0,29.88,SSW,203,0.0,0.9,88,0.00,,,0.00,WUHU216HW,2014-01-12 10:53:00,
2014-01-12 02:58:00,42.3,39.0,29.86,SE,135,1.1,1.8,88,0.00,,,0.00,WUHU216HW,2014-01-12 10:58:00,
2014-01-12 03:03:00,42.3,39.0,29.88,SW,225,1.3,1.8,88,0.00,,,0.00,WUHU216HW,2014-01-12 11:03:00,
2014-01-12 03:08:00,42.3,39.0,29.88,SSE,158,0.7,1.8,88,0.00,,,0.00,WUHU216HW,2014-01-12 11:08:00,
2014-01-12 03:13:00,42.5,39.2,29.88,WSW,248,1.6,2.2,88,0.00,,,0.00,WUHU216HW,2014-01-12 11:13:00,
2014-01-12 03:18:00,42.5,38.9,29.89,WSW,248,2.2,2.2,87,0.00,,,0.00,WUHU216HW,2014-01-12 11:18:00,
2014-01-12 03:23:00,42.7,39.1,29.89,WSW,248,1.8,2.2,87,0.00,,,0.00,WUHU216HW,2014-01-12 11:23:00,
2014-01-12 03:28:00,42.5,38.9,29.89,West,270,0.0,2.0,87,0.00,,,0.00,WUHU216HW,2014-01-12 11:28:00,
2014-01-12 03:33:00,42.5,38.9,29.89,West,270,2.7,2.7,87,0.00,,,0.00,WUHU216HW,2014-01-12 11:33:00,
2014-01-12 03:38:00,42.7,38.7,29.90,WSW,248,1.6,2.7,86,0.00,,,0.00,WUHU216HW,2014-01-12 11:38:00,
2014-01-12 03:43:00,42.8,38.9,29.90,South,180,0.4,2.5,86,0.00,,,0.00,WUHU216HW,2014-01-12 11:43:00,
2014-01-12 03:48:00,42.8,39.3,29.90,SSE,158,1.1,2.0,87,0.00,,,0.00,WUHU216HW,2014-01-12 11:48:00,
2014-01-12 03:53:00,42.8,39.3,29.91,South,180,0.0,1.1,87,0.00,,,0.00,WUHU216HW,2014-01-12 11:53:00,
2014-01-12 03:58:00,42.8,39.3,29.91,SSW,203,0.0,1.6,87,0.00,,,0.00,WUHU216HW,2014-01-12 11:58:00,
2014-01-12 04:03:00,42.8,39.3,29.91,WSW,248,0.0,1.6,87,0.00,,,0.00,WUHU216HW,2014-01-12 12:03:00,
2014-01-12 04:08:00,42.8,39.3,29.92,WSW,248,1.1,1.1,87,0.00,,,0.00,WUHU216HW,2014-01-12 12:08:00,
2014-01-12 04:13:00,42.8,39.3,29.92,SSW,203,1.6,1.8,87,0.00,,,0.00,WUHU216HW,2014-01-12 12:13:00,
2014-01-12 04:18:00,43.0,39.4,29.92,SW,225,0.0,1.8,87,0.00,,,0.00,WUHU216HW,2014-01-12 12:18:00,
2014-01-12 04:23:00,43.0,39.4,29.92,WNW,293,0.4,1.8,87,0.00,,,0.00,WUHU216HW,2014-01-12 12:23:00,
2014-01-12 04:28:00,43.0,39.4,29.93,WNW,293,0.0,1.8,87,0.00,,,0.00,WUHU216HW,2014-01-12 12:28:00,
2014-01-12 04:33:00,43.0,39.4,29.93,WNW,293,0.0,0.4,87,0.00,,,0.00,WUHU216HW,2014-01-12 12:33:00,
2014-01-12 04:38:00,43.0,39.4,29.93,SW,225,0.0,0.7,87,0.00,,,0.00,WUHU216HW,2014-01-12 12:38:00,
2014-01-12 04:43:00,43.0,39.4,29.94,WNW,293,0.9,1.1,87,0.00,,,0.00,WUHU216HW,2014-01-12 12:43:00,
2014-01-12 04:48:00,43.0,39.4,29.94,WNW,293,1.3,1.3,87,0.00,,,0.00,WUHU216HW,2014-01-12 12:48:00,
2014-01-12 04:53:00,43.2,39.6,29.94,SW,225,1.3,2.7,87,0.00,,,0.00,WUHU216HW,2014-01-12 12:53:00,
2014-01-12 04:58:00,43.2,39.6,29.94,West,270,1.1,2.7,87,0.00,,,0.00,WUHU216HW,2014-01-12 12:58:00,
2014-01-12 05:03:00,43.0,39.4,29.94,WSW,248,0.0,1.8,87,0.00,,,0.00,WUHU216HW,2014-01-12 13:03:00,
2014-01-12 05:08:00,43.0,39.4,29.94,WSW,248,0.0,2.0,87,0.01,,,0.00,WUHU216HW,2014-01-12 13:08:00,
2014-01-12 05:13:00,43.0,39.4,29.94,SW,225,0.0,2.0,87,0.01,,,0.00,WUHU216HW,2014-01-12 13:13:00,
2014-01-12 05:18:00,42.8,39.5,29.94,ESE,113,0.0,0.4,88,0.01,,,0.00,WUHU216HW,2014-01-12 13:18:00,
2014-01-12 05:23:00,42.8,39.5,29.94,SW,225,0.0,1.1,88,0.01,,,0.00,WUHU216HW,2014-01-12 13:23:00,
2014-01-12 05:28:00,42.8,39.5,29.95,WSW,248,0.9,1.1,88,0.01,,,0.00,WUHU216HW,2014-01-12 13:28:00,
2014-01-12 05:33:00,42.5,39.5,29.95,SSW,203,0.0,0.9,89,0.01,,,0.00,WUHU216HW,2014-01-12 13:33:00,
2014-01-12 05:38:00,42.5,39.5,29.95,SSW,203,0.0,0.0,89,0.01,,,0.00,WUHU216HW,2014-01-12 13:38:00,
2014-01-12 05:43:00,42.5,39.5,29.95,WSW,248,2.0,2.0,89,0.01,,,0.00,WUHU216HW,2014-01-12 13:43:00,
2014-01-12 05:48:00,42.5,39.5,29.95,SSE,158,0.0,2.0,89,0.01,,,0.00,WUHU216HW,2014-01-12 13:48:00,
2014-01-12 05:53:00,42.5,39.5,29.95,SSE,158,0.0,1.1,89,0.01,,,0.00,WUHU216HW,2014-01-12 13:53:00,
2014-01-12 05:58:00,42.5,39.5,29.96,SW,225,0.0,0.4,89,0.01,,,0.00,WUHU216HW,2014-01-12 13:58:00,
2014-01-12 06:03:00,42.5,39.5,29.96,SW,225,0.7,0.9,89,0.00,,,0.00,WUHU216HW,2014-01-12 14:03:00,
2014-01-12 06:08:00,42.5,39.8,29.95,East,90,0.4,0.9,90,0.00,,,0.00,WUHU216HW,2014-01-12 14:08:00,
2014-01-12 06:13:00,42.5,39.8,29.95,South,180,0.4,2.0,90,0.00,,,0.00,WUHU216HW,2014-01-12 14:13:00,
2014-01-12 06:18:00,42.5,39.8,29.96,SSE,158,1.1,2.9,90,0.00,,,0.00,WUHU216HW,2014-01-12 14:18:00,
2014-01-12 06:23:00,42.5,39.5,29.96,SW,225,0.9,3.8,89,0.00,,,0.00,WUHU216HW,2014-01-12 14:23:00,
2014-01-12 06:28:00,42.7,39.7,29.96,WSW,248,1.1,3.8,89,0.00,,,0.00,WUHU216HW,2014-01-12 14:28:00,
2014-01-12 06:33:00,42.7,39.7,29.95,SSW,203,0.0,2.5,89,0.00,,,0.00,WUHU216HW,2014-01-12 14:33:00,
2014-01-12 06:38:00,42.7,39.7,29.95,South,180,1.1,1.1,89,0.00,,,0.00,WUHU216HW,2014-01-12 14:38:00,
2014-01-12 06:43:00,42.7,39.7,29.96,SSW,203,0.0,1.1,89,0.00,,,0.00,WUHU216HW,2014-01-12 14:43:00,
2014-01-12 06:48:00,42.8,39.9,29.96,WNW,293,0.4,1.1,89,0.00,,,0.00,WUHU216HW,2014-01-12 14:48:00,
2014-01-12 06:53:00,42.8,39.9,29.96,SW,225,1.8,1.8,89,0.00,,,0.00,WUHU216HW,2014-01-12 14:53:00,
2014-01-12 06:58:00,42.8,39.5,29.96,West,270,3.6,4.0,88,0.00,,,0.00,WUHU216HW,2014-01-12 14:58:00,
2014-01-12 07:03:00,43.0,39.4,29.96,WSW,248,1.1,5.6,87,0.00,,,0.00,WUHU216HW,2014-01-12 15:03:00,
2014-01-12 07:08:00,43.2,39.6,29.96,WSW,248,2.5,5.6,87,0.00,,,0.00,WUHU216HW,2014-01-12 15:08:00,
2014-01-12 07:13:00,43.2,39.6,29.96,WSW,248,8.5,8.5,87,0.00,,,0.00,WUHU216HW,2014-01-12 15:13:00,
2014-01-12 07:18:00,43.2,39.6,29.97,WSW,248,2.2,8.5,87,0.00,,,0.00,WUHU216HW,2014-01-12 15:18:00,
2014-01-12 07:23:00,43.2,39.9,29.97,SW,225,2.0,5.8,88,0.00,,,0.00,WUHU216HW,2014-01-12 15:23:00,
2014-01-12 07:28:00,43.2,39.6,29.97,SW,225,5.4,7.2,87,0.00,,,0.00,WUHU216HW,2014-01-12 15:28:00,
2014-01-12 07:33:00,43.0,39.4,29.96,WSW,248,3.1,7.2,87,0.00,,,0.00,WUHU216HW,2014-01-12 15:33:00,
2014-01-12 07:38:00,42.8,39.5,29.96,SE,135,2.5,5.4,88,0.01,,,0.00,WUHU216HW,2014-01-12 15:38:00,
2014-01-12 07:43:00,42.8,39.9,29.96,WNW,293,2.5,4.7,89,0.01,,,0.00,WUHU216HW,2014-01-12 15:43:00,
2014-01-12 07:48:00,42.8,40.1,29.97,SSE,158,4.0,4.7,90,0.01,,,0.00,WUHU216HW,2014-01-12 15:48:00,
2014-01-12 07:53:00,42.7,40.0,29.97,South,180,1.1,5.6,90,0.01,,,0.00,WUHU216HW,2014-01-12 15:53:00,
2014-01-12 07:58:00,42.5,39.8,29.97,SW,225,1.6,5.6,90,0.01,,,0.00,WUHU216HW,2014-01-12 15:58:00,
2014-01-12 08:03:00,42.5,39.8,29.97,SSW,203,4.5,5.4,90,0.01,,,0.00,WUHU216HW,2014-01-12 16:03:00,
2014-01-12 08:08:00,42.3,39.6,29.98,SSE,158,0.4,4.7,90,0.01,,,0.00,WUHU216HW,2014-01-12 16:08:00,
2014-01-12 08:13:00,42.3,39.6,29.97,South,180,1.6,4.7,90,0.01,,,0.00,WUHU216HW,2014-01-12 16:13:00,
2014-01-12 08:18:00,42.3,39.6,29.98,West,270,7.2,7.2,90,0.01,,,0.00,WUHU216HW,2014-01-12 16:18:00,
2014-01-12 08:23:00,42.1,39.7,29.97,SE,135,2.2,7.2,91,0.01,,,0.00,WUHU216HW,2014-01-12 16:23:00,
2014-01-12 08:28:00,42.1,39.7,29.98,West,270,3.1,5.6,91,0.01,,,0.00,WUHU216HW,2014-01-12 16:28:00,
2014-01-12 08:33:00,42.1,39.7,29.98,SSW,203,1.8,5.6,91,0.00,,,0.00,WUHU216HW,2014-01-12 16:33:00,
2014-01-12 08:38:00,41.9,39.5,29.98,WSW,248,3.6,4.5,91,0.00,,,0.00,WUHU216HW,2014-01-12 16:38:00,
2014-01-12 08:43:00,41.9,39.5,29.99,West,270,4.0,4.9,91,0.00,,,0.00,WUHU216HW,2014-01-12 16:43:00,
2014-01-12 08:48:00,41.8,39.3,29.99,SSW,203,3.4,4.9,91,0.00,,,0.00,WUHU216HW,2014-01-12 16:48:00,
2014-01-12 08:53:00,41.6,39.2,29.99,WSW,248,4.7,6.5,91,0.00,,,0.00,WUHU216HW,2014-01-12 16:53:00,
2014-01-12 08:58:00,41.6,39.2,29.99,WSW,248,4.0,6.5,91,0.00,,,0.00,WUHU216HW,2014-01-12 16:58:00,
2014-01-12 09:03:00,41.4,39.0,29.99,SW,225,1.1,4.7,91,0.00,,,0.00,WUHU216HW,2014-01-12 17:03:00,
2014-01-12 09:08:00,41.4,39.0,29.99,ESE,113,1.6,4.7,91,0.00,,,0.00,WUHU216HW,2014-01-12 17:08:00,
2014-01-12 09:13:00,41.4,39.2,29.99,SSE,158,1.3,4.9,92,0.00,,,0.00,WUHU216HW,2014-01-12 17:13:00,
2014-01-12 09:18:00,41.4,39.2,29.99,SSE,158,2.7,4.9,92,0.00,,,0.00,WUHU216HW,2014-01-12 17:18:00,
2014-01-12 09:23:00,41.4,39.2,29.99,SSW,203,0.7,4.0,92,0.00,,,0.00,WUHU216HW,2014-01-12 17:23:00,
2014-01-12 09:28:00,41.4,39.2,29.99,SSE,158,4.0,4.7,92,0.00,,,0.00,WUHU216HW,2014-01-12 17:28:00,
2014-01-12 09:33:00,41.4,39.2,29.99,South,180,0.9,4.7,92,0.00,,,0.00,WUHU216HW,2014-01-12 17:33:00,
2014-01-12 09:38:00,41.4,39.2,29.99,South,180,2.9,4.7,92,0.00,,,0.00,WUHU216HW,2014-01-12 17:38:00,
2014-01-12 09:43:00,41.4,39.2,30.00,SSE,158,1.3,5.4,92,0.00,,,0.00,WUHU216HW,2014-01-12 17:43:00,
2014-01-12 09:48:00,41.4,39.2,30.00,WSW,248,2.5,5.4,92,0.00,,,0.00,WUHU216HW,2014-01-12 17:48:00,
2014-01-12 09:53:00,41.6,39.4,30.00,South,180,1.1,2.5,92,0.00,,,0.00,WUHU216HW,2014-01-12 17:53:00,
2014-01-12 09:58:00,41.6,39.4,30.00,SSW,203,2.5,2.5,92,0.00,,,0.00,WUHU216HW,2014-01-12 17:58:00,
2014-01-12 10:03:00,41.6,39.4,30.00,SSW,203,0.0,2.5,92,0.00,,,0.00,WUHU216HW,2014-01-12 18:03:00,
2014-01-12 10:08:00,41.6,39.4,30.00,SSE,158,1.8,1.8,92,0.00,,,0.00,WUHU216HW,2014-01-12 18:08:00,
2014-01-12 10:13:00,41.8,39.6,30.00,SSW,203,1.1,1.8,92,0.00,,,0.00,WUHU216HW,2014-01-12 18:13:00,
2014-01-12 10:18:00,41.6,39.4,30.01,SSE,158,2.2,2.9,92,0.00,,,0.00,WUHU216HW,2014-01-12 18:18:00,
2014-01-12 10:23:00,41.8,39.6,30.01,SSW,203,0.4,2.9,92,0.00,,,0.00,WUHU216HW,2014-01-12 18:23:00,
2014-01-12 10:28:00,41.8,39.6,30.01,South,180,3.4,3.4,92,0.00,,,0.00,WUHU216HW,2014-01-12 18:28:00,
2014-01-12 10:33:00,41.8,39.6,30.00,SSW,203,2.2,3.4,92,0.00,,,0.00,WUHU216HW,2014-01-12 18:33:00,
2014-01-12 10:38:00,41.8,39.6,30.00,SSE,158,0.7,3.4,92,0.00,,,0.00,WUHU216HW,2014-01-12 18:38:00,
2014-01-12 10:43:00,41.8,39.6,30.01,SSW,203,1.6,3.4,92,0.00,,,0.00,WUHU216HW,2014-01-12 18:43:00,
2014-01-12 10:48:00,41.8,39.6,30.02,SSE,158,2.2,2.2,92,0.00,,,0.00,WUHU216HW,2014-01-12 18:48:00,
2014-01-12 10:53:00,41.8,39.6,30.01,SSW,203,0.9,3.4,92,0.00,,,0.00,WUHU216HW,2014-01-12 18:53:00,
2014-01-12 10:58:00,41.9,39.8,30.01,SSE,158,1.8,3.4,92,0.00,,,0.00,WUHU216HW,2014-01-12 18:58:00,
2014-01-12 11:03:00,41.9,39.8,30.01,ESE,113,1.3,2.7,92,0.00,,,0.00,WUHU216HW,2014-01-12 19:03:00,
2014-01-12 11:08:00,42.1,40.0,30.01,SSW,203,0.4,2.2,92,0.00,,,0.00,WUHU216HW,2014-01-12 19:08:00,
2014-01-12 11:13:00,42.1,40.0,30.01,SSW,203,1.1,1.8,92,0.00,,,0.00,WUHU216HW,2014-01-12 19:13:00,
2014-01-12 11:18:00,42.1,40.0,30.01,SSW,203,1.3,1.8,92,0.00,,,0.00,WUHU216HW,2014-01-12 19:18:00,
2014-01-12 11:23:00,42.3,40.1,30.01,SW,225,2.2,2.9,92,0.00,,,0.00,WUHU216HW,2014-01-12 19:23:00,
2014-01-12 11:28:00,42.3,40.1,30.01,SW,225,1.6,2.9,92,0.00,,,0.00,WUHU216HW,2014-01-12 19:28:00,
2014-01-12 11:33:00,42.5,40.3,30.01,NNW,338,1.3,1.8,92,0.00,,,0.00,WUHU216HW,2014-01-12 19:33:00,
2014-01-12 11:38:00,42.8,41.0,30.00,SSE,158,1.1,2.5,93,0.00,,,0.00,WUHU216HW,2014-01-12 19:38:00,
2014-01-12 11:43:00,43.0,41.1,30.00,SW,225,1.8,2.5,93,0.00,,,0.00,WUHU216HW,2014-01-12 19:43:00,
2014-01-12 11:48:00,43.2,41.3,30.01,South,180,2.9,2.9,93,0.00,,,0.00,WUHU216HW,2014-01-12 19:48:00,
2014-01-12 11:53:00,43.6,41.7,30.01,South,180,1.1,2.9,93,0.00,,,0.00,WUHU216HW,2014-01-12 19:53:00,
2014-01-12 11:58:00,43.7,41.9,30.02,SW,225,2.7,2.7,93,0.00,,,0.00,WUHU216HW,2014-01-12 19:58:00,
2014-01-12 12:03:00,44.3,42.7,30.02,WSW,248,2.7,5.6,94,0.00,,,0.00,WUHU216HW,2014-01-12 20:03:00,
2014-01-12 12:08:00,44.5,42.8,30.01,South,180,3.1,5.6,94,0.00,,,0.00,WUHU216HW,2014-01-12 20:08:00,
2014-01-12 12:13:00,45.0,43.4,30.01,WSW,248,1.1,5.1,94,0.00,,,0.00,WUHU216HW,2014-01-12 20:13:00,
2014-01-12 12:18:00,45.2,43.6,30.00,SE,135,2.2,4.0,94,0.00,,,0.00,WUHU216HW,2014-01-12 20:18:00,
2014-01-12 12:23:00,45.4,43.7,30.00,SSW,203,2.7,4.0,94,0.00,,,0.00,WUHU216HW,2014-01-12 20:23:00,
2014-01-12 12:28:00,45.4,43.7,30.01,SSW,203,1.8,2.7,94,0.00,,,0.00,WUHU216HW,2014-01-12 20:28:00,
2014-01-12 12:33:00,45.5,43.9,30.01,ESE,113,2.0,2.2,94,0.00,,,0.00,WUHU216HW,2014-01-12 20:33:00,
2014-01-12 12:38:00,45.7,43.8,30.01,SW,225,1.8,2.5,93,0.00,,,0.00,WUHU216HW,2014-01-12 20:38:00,
2014-01-12 12:43:00,45.7,43.8,30.02,WSW,248,0.0,2.5,93,0.00,,,0.00,WUHU216HW,2014-01-12 20:43:00,
2014-01-12 12:48:00,45.9,44.3,30.02,SSW,203,0.7,3.4,94,0.00,,,0.00,WUHU216HW,2014-01-12 20:48:00,
2014-01-12 12:53:00,45.9,44.3,30.02,West,270,1.6,3.4,94,0.00,,,0.00,WUHU216HW,2014-01-12 20:53:00,
2014-01-12 12:58:00,46.1,44.5,30.02,SSW,203,0.4,1.6,94,0.00,,,0.00,WUHU216HW,2014-01-12 20:58:00,
2014-01-12 13:03:00,46.1,44.5,30.01,SW,225,0.7,1.1,94,0.00,,,0.00,WUHU216HW,2014-01-12 21:03:00,
2014-01-12 13:08:00,46.3,44.6,30.01,ESE,113,0.0,1.8,94,0.00,,,0.00,WUHU216HW,2014-01-12 21:08:00,
2014-01-12 13:13:00,46.4,44.8,30.01,South,180,0.4,1.8,94,0.00,,,0.00,WUHU216HW,2014-01-12 21:13:00,
2014-01-12 13:18:00,46.4,44.8,30.00,SSW,203,2.7,2.7,94,0.00,,,0.00,WUHU216HW,2014-01-12 21:18:00,
2014-01-12 13:23:00,46.4,44.8,30.00,SW,225,1.1,2.7,94,0.00,,,0.00,WUHU216HW,2014-01-12 21:23:00,
2014-01-12 13:28:00,46.4,44.8,30.00,SW,225,1.6,1.6,94,0.00,,,0.00,WUHU216HW,2014-01-12 21:28:00,
2014-01-12 13:33:00,46.6,45.0,30.00,SW,225,2.5,2.5,94,0.00,,,0.00,WUHU216HW,2014-01-12 21:33:00,
2014-01-12 13:38:00,46.8,45.2,30.00,SW,225,2.7,2.7,94,0.00,,,0.00,WUHU216HW,2014-01-12 21:38:00,
2014-01-12 13:43:00,47.0,45.4,30.00,SSW,203,0.4,2.7,94,0.00,,,0.00,WUHU216HW,2014-01-12 21:43:00,
2014-01-12 13:48:00,47.2,45.5,30.00,SE,135,0.9,2.2,94,0.00,,,0.00,WUHU216HW,2014-01-12 21:48:00,
2014-01-12 13:53:00,47.2,45.5,30.00,WSW,248,0.7,1.3,94,0.00,,,0.00,WUHU216HW,2014-01-12 21:53:00,
2014-01-12 13:58:00,47.3,45.7,30.00,SE,135,2.9,2.9,94,0.00,,,0.00,WUHU216HW,2014-01-12 21:58:00,
2014-01-12 14:03:00,47.5,45.9,30.00,West,270,1.8,4.0,94,0.00,,,0.00,WUHU216HW,2014-01-12 22:03:00,
2014-01-12 14:08:00,47.7,46.1,30.00,SW,225,5.1,5.1,94,0.00,,,0.00,WUHU216HW,2014-01-12 22:08:00,
2014-01-12 14:13:00,47.9,46.3,30.00,SSW,203,2.5,5.1,94,0.00,,,0.00,WUHU216HW,2014-01-12 22:13:00,
2014-01-12 14:18:00,48.1,46.4,30.00,SSW,203,2.5,5.4,94,0.00,,,0.00,WUHU216HW,2014-01-12 22:18:00,
2014-01-12 14:23:00,48.4,46.8,30.00,WSW,248,1.8,5.4,94,0.00,,,0.00,WUHU216HW,2014-01-12 22:23:00,
2014-01-12 14:28:00,48.6,46.7,30.01,SW,225,4.0,5.6,93,0.00,,,0.00,WUHU216HW,2014-01-12 22:28:00,
2014-01-12 14:33:00,48.8,46.6,30.01,SW,225,4.0,8.7,92,0.00,,,0.00,WUHU216HW,2014-01-12 22:33:00,
2014-01-12 14:38:00,49.1,46.9,30.02,WSW,248,4.0,8.7,92,0.00,,,0.00,WUHU216HW,2014-01-12 22:38:00,
2014-01-12 14:43:00,49.3,46.8,30.02,SSW,203,2.9,6.7,91,0.00,,,0.00,WUHU216HW,2014-01-12 22:43:00,
2014-01-12 14:48:00,49.3,46.8,30.02,SSW,203,3.1,10.5,91,0.00,,,0.00,WUHU216HW,2014-01-12 22:48:00,
2014-01-12 14:53:00,49.5,47.0,30.02,WSW,248,4.7,10.5,91,0.00,,,0.00,WUHU216HW,2014-01-12 22:53:00,
2014-01-12 14:58:00,49.5,47.0,30.03,SW,225,2.7,5.6,91,0.00,,,0.00,WUHU216HW,2014-01-12 22:58:00,
2014-01-12 15:03:00,49.7,47.2,30.02,SW,225,4.7,8.1,91,0.00,,,0.00,WUHU216HW,2014-01-12 23:03:00,
2014-01-12 15:08:00,49.9,47.0,30.04,SW,225,2.2,8.1,90,0.00,,,0.00,WUHU216HW,2014-01-12 23:08:00,
2014-01-12 15:13:00,49.9,47.0,30.04,WSW,248,4.3,6.3,90,0.00,,,0.00,WUHU216HW,2014-01-12 23:13:00,
2014-01-12 15:18:00,49.9,47.0,30.04,WSW,248,4.0,7.4,90,0.00,,,0.00,WUHU216HW,2014-01-12 23:18:00,
2014-01-12 15:23:00,49.9,47.0,30.04,South,180,5.6,7.4,90,0.00,,,0.00,WUHU216HW,2014-01-12 23:23:00,
2014-01-12 15:28:00,49.9,47.0,30.04,West,270,3.4,5.6,90,0.00,,,0.00,WUHU216HW,2014-01-12 23:28:00,
2014-01-12 15:33:00,50.0,47.2,30.04,West,270,3.4,5.6,90,0.00,,,0.00,WUHU216HW,2014-01-12 23:33:00,
2014-01-12 15:38:00,50.0,47.2,30.03,SW,225,4.7,6.5,90,0.00,,,0.00,WUHU216HW,2014-01-12 23:38:00,
2014-01-12 15:43:00,50.0,47.2,30.04,SW,225,5.6,7.8,90,0.00,,,0.00,WUHU216HW,2014-01-12 23:43:00,
2014-01-12 15:48:00,50.0,47.2,30.03,SW,225,5.6,8.3,90,0.00,,,0.00,WUHU216HW,2014-01-12 23:48:00,
2014-01-12 15:53:00,50.0,47.2,30.03,SSW,203,9.2,9.2,90,0.00,,,0.00,WUHU216HW,2014-01-12 23:53:00,
2014-01-12 15:58:00,50.2,47.3,30.03,West,270,6.9,9.2,90,0.00,,,0.00,WUHU216HW,2014-01-12 23:58:00,
2014-01-12 16:03:00,50.2,47.3,30.04,West,270,4.0,7.6,90,0.00,,,0.00,WUHU216HW,2014-01-13 00:03:00,
2014-01-12 16:08:00,50.0,47.2,30.06,WSW,248,3.4,7.6,90,0.00,,,0.00,WUHU216HW,2014-01-13 00:08:00,
2014-01-12 16:13:00,50.0,47.2,30.07,SSW,203,6.0,6.0,90,0.00,,,0.00,WUHU216HW,2014-01-13 00:13:00,
2014-01-12 16:18:00,50.2,47.3,30.07,West,270,4.3,6.7,90,0.00,,,0.00,WUHU216HW,2014-01-13 00:18:00,
2014-01-12 16:23:00,50.2,47.3,30.07,NNW,338,3.8,6.7,90,0.00,,,0.00,WUHU216HW,2014-01-13 00:23:00,
2014-01-12 16:28:00,50.2,47.3,30.06,WSW,248,0.2,5.4,90,0.00,,,0.00,WUHU216HW,2014-01-13 00:28:00,
2014-01-12 16:33:00,50.2,47.3,30.07,West,270,1.8,6.5,90,0.00,,,0.00,WUHU216HW,2014-01-13 00:33:00,
2014-01-12 16:38:00,50.0,47.2,30.07,SSW,203,6.3,6.7,90,0.00,,,0.00,WUHU216HW,2014-01-13 00:38:00,
2014-01-12 16:43:00,50.0,47.2,30.07,West,270,2.5,7.8,90,0.00,,,0.00,WUHU216HW,2014-01-13 00:43:00,
2014-01-12 16:48:00,50.0,47.2,30.07,SSW,203,5.1,7.8,90,0.00,,,0.00,WUHU216HW,2014-01-13 00:48:00,
2014-01-12 16:53:00,50.0,47.2,30.08,SW,225,3.4,6.5,90,0.00,,,0.00,WUHU216HW,2014-01-13 00:53:00,
2014-01-12 16:58:00,50.0,47.2,30.08,West,270,2.5,6.5,90,0.00,,,0.00,WUHU216HW,2014-01-13 00:58:00,
2014-01-12 17:03:00,50.2,47.3,30.08,West,270,4.7,7.6,90,0.00,,,0.00,WUHU216HW,2014-01-13 01:03:00,
2014-01-12 17:08:00,50.2,47.3,30.09,WSW,248,5.8,7.6,90,0.00,,,0.00,WUHU216HW,2014-01-13 01:08:00,
2014-01-12 17:13:00,50.2,47.3,30.09,West,270,2.5,6.0,90,0.00,,,0.00,WUHU216HW,2014-01-13 01:13:00,
2014-01-12 17:18:00,50.2,47.3,30.09,SSW,203,2.2,5.6,90,0.00,,,0.00,WUHU216HW,2014-01-13 01:18:00,
2014-01-12 17:23:00,50.2,47.3,30.10,SW,225,2.5,4.0,90,0.00,,,0.00,WUHU216HW,2014-01-13 01:23:00,
2014-01-12 17:28:00,50.0,47.2,30.09,WSW,248,1.6,4.5,90,0.00,,,0.00,WUHU216HW,2014-01-13 01:28:00,
2014-01-12 17:33:00,50.0,47.2,30.10,WSW,248,0.9,4.5,90,0.00,,,0.00,WUHU216HW,2014-01-13 01:33:00,
2014-01-12 17:38:00,50.0,47.4,30.10,WSW,248,0.9,2.2,91,0.00,,,0.00,WUHU216HW,2014-01-13 01:38:00,
2014-01-12 17:43:00,50.0,47.4,30.10,SSE,158,0.0,2.2,91,0.00,,,0.00,WUHU216HW,2014-01-13 01:43:00,
2014-01-12 17:48:00,50.0,47.4,30.10,South,180,0.4,1.8,91,0.00,,,0.00,WUHU216HW,2014-01-13 01:48:00,
2014-01-12 17:53:00,49.9,47.3,30.10,SSW,203,2.9,3.1,91,0.00,,,0.00,WUHU216HW,2014-01-13 01:53:00,
2014-01-12 17:58:00,49.9,47.3,30.10,SSW,203,1.6,3.4,91,0.00,,,0.00,WUHU216HW,2014-01-13 01:58:00,
2014-01-12 18:03:00,49.9,47.3,30.10,SSW,203,0.4,3.4,91,0.00,,,0.00,WUHU216HW,2014-01-13 02:03:00,
2014-01-12 18:08:00,49.7,47.2,30.11,West,270,0.7,2.2,91,0.00,,,0.00,WUHU216HW,2014-01-13 02:08:00,
2014-01-12 18:13:00,49.7,47.2,30.10,West,270,1.8,2.9,91,0.00,,,0.00,WUHU216HW,2014-01-13 02:13:00,
2014-01-12 18:18:00,49.7,47.2,30.11,West,270,1.1,2.9,91,0.00,,,0.00,WUHU216HW,2014-01-13 02:18:00,
2014-01-12 18:23:00,49.9,47.3,30.10,SSW,203,1.1,2.0,91,0.00,,,0.00,WUHU216HW,2014-01-13 02:23:00,
2014-01-12 18:28:00,49.9,47.3,30.11,South,180,1.1,2.5,91,0.00,,,0.00,WUHU216HW,2014-01-13 02:28:00,
2014-01-12 18:33:00,49.7,47.2,30.11,WSW,248,2.2,2.5,91,0.00,,,0.00,WUHU216HW,2014-01-13 02:33:00,
2014-01-12 18:38:00,49.7,47.2,30.11,WSW,248,2.5,5.4,91,0.00,,,0.00,WUHU216HW,2014-01-13 02:38:00,
2014-01-12 18:43:00,49.7,47.2,30.11,SW,225,3.4,5.4,91,0.00,,,0.00,WUHU216HW,2014-01-13 02:43:00,
2014-01-12 18:48:00,49.7,47.2,30.11,SW,225,0.4,4.3,91,0.00,,,0.00,WUHU216HW,2014-01-13 02:48:00,
2014-01-12 18:53:00,49.7,47.2,30.11,WSW,248,2.2,4.3,91,0.00,,,0.00,WUHU216HW,2014-01-13 02:53:00,
2014-01-12 18:58:00,49.5,47.0,30.10,SSW,203,1.1,2.5,91,0.00,,,0.00,WUHU216HW,2014-01-13 02:58:00,
2014-01-12 19:03:00,49.5,46.7,30.12,SSE,158,1.1,3.4,90,0.00,,,0.00,WUHU216HW,2014-01-13 03:03:00,
2014-01-12 19:08:00,49.5,46.7,30.11,WSW,248,3.4,3.4,90,0.00,,,0.00,WUHU216HW,2014-01-13 03:08:00,
2014-01-12 19:13:00,49.5,46.7,30.12,WSW,248,2.5,4.7,90,0.00,,,0.00,WUHU216HW,2014-01-13 03:13:00,
2014-01-12 19:18:00,49.5,46.4,30.11,WSW,248,4.3,5.1,89,0.00,,,0.00,WUHU216HW,2014-01-13 03:18:00,
2014-01-12 19:23:00,49.5,46.4,30.12,West,270,3.4,7.2,89,0.00,,,0.00,WUHU216HW,2014-01-13 03:23:00,
2014-01-12 19:28:00,49.5,46.1,30.12,SSW,203,4.7,7.2,88,0.00,,,0.00,WUHU216HW,2014-01-13 03:28:00,
2014-01-12 19:33:00,49.5,46.1,30.12,WSW,248,3.8,6.7,88,0.00,,,0.00,WUHU216HW,2014-01-13 03:33:00,
2014-01-12 19:38:00,49.5,46.1,30.12,WSW,248,8.1,8.1,88,0.00,,,0.00,WUHU216HW,2014-01-13 03:38:00,
2014-01-12 19:43:00,49.5,46.1,30.13,West,270,4.9,9.2,88,0.00,,,0.00,WUHU216HW,2014-01-13 03:43:00,
2014-01-12 19:48:00,49.5,46.1,30.13,South,180,5.1,9.2,88,0.00,,,0.00,WUHU216HW,2014-01-13 03:48:00,
2014-01-12 19:53:00,49.5,46.1,30.13,SSE,158,3.4,7.8,88,0.00,,,0.00,WUHU216HW,2014-01-13 03:53:00,
2014-01-12 19:58:00,49.5,46.1,30.14,WNW,293,4.7,7.2,88,0.00,,,0.00,WUHU216HW,2014-01-13 03:58:00,
2014-01-12 20:03:00,49.3,45.9,30.14,WSW,248,4.5,7.4,88,0.00,,,0.00,WUHU216HW,2014-01-13 04:03:00,
2014-01-12 20:08:00,49.5,46.1,30.14,SW,225,3.6,7.4,88,0.00,,,0.00,WUHU216HW,2014-01-13 04:08:00,
2014-01-12 20:13:00,49.5,46.1,30.14,West,270,4.7,6.9,88,0.00,,,0.00,WUHU216HW,2014-01-13 04:13:00,
2014-01-12 20:18:00,49.3,45.9,30.14,WSW,248,6.5,6.9,88,0.00,,,0.00,WUHU216HW,2014-01-13 04:18:00,
2014-01-12 20:23:00,49.3,45.9,30.14,SW,225,6.3,6.5,88,0.00,,,0.00,WUHU216HW,2014-01-13 04:23:00,
2014-01-12 20:28:00,49.3,45.9,30.14,SW,225,8.5,8.5,88,0.00,,,0.00,WUHU216HW,2014-01-13 04:28:00,
2014-01-12 20:33:00,49.5,46.1,30.15,SW,225,4.7,8.5,88,0.00,,,0.00,WUHU216HW,2014-01-13 04:33:00,
2014-01-12 20:38:00,49.5,46.1,30.15,SW,225,3.4,6.3,88,0.00,,,0.00,WUHU216HW,2014-01-13 04:38:00,
2014-01-12 20:43:00,49.3,45.9,30.15,SW,225,3.1,6.3,88,0.00,,,0.00,WUHU216HW,2014-01-13 04:43:00,
2014-01-12 20:48:00,49.3,45.9,30.16,SW,225,2.0,3.1,88,0.00,,,0.00,WUHU216HW,2014-01-13 04:48:00,
2014-01-12 20:53:00,49.3,45.9,30.16,WSW,248,6.3,6.3,88,0.00,,,0.00,WUHU216HW,2014-01-13 04:53:00,
2014-01-12 20:58:00,49.3,45.9,30.17,WSW,248,3.1,6.3,88,0.00,,,0.00,WUHU216HW,2014-01-13 04:58:00,
2014-01-12 21:01:00,49.3,45.9,30.17,SSE,158,0.9,6.3,88,0.00,,,0.00,WUHU216HW,2014-01-13 05:01:00,
2014-01-12 21:02:00,49.3,45.9,30.17,WSW,248,5.6,6.3,88,0.00,,,0.00,WUHU216HW,2014-01-13 05:02:00,
2014-01-12 21:07:00,49.3,45.9,30.17,SW,225,1.6,5.6,88,0.00,,,0.00,WUHU216HW,2014-01-13 05:07:00,
2014-01-12 21:12:00,49.3,45.9,30.17,WNW,293,2.2,5.1,88,0.00,,,0.00,WUHU216HW,2014-01-13 05:12:00,
2014-01-12 21:17:00,49.3,45.9,30.17,SSE,158,4.3,4.7,88,0.00,,,0.00,WUHU216HW,2014-01-13 05:17:00,
2014-01-12 21:22:00,49.3,45.9,30.17,SW,225,2.0,4.3,88,0.00,,,0.00,WUHU216HW,2014-01-13 05:22:00,
2014-01-12 21:27:00,49.3,45.9,30.17,West,270,3.4,8.5,88,0.00,,,0.00,WUHU216HW,2014-01-13 05:27:00,
2014-01-12 21:32:00,49.3,45.9,30.17,SW,225,5.6,8.5,88,0.00,,,0.00,WUHU216HW,2014-01-13 05:32:00,
2014-01-12 21:37:00,49.3,45.9,30.17,West,270,1.8,5.6,88,0.00,,,0.00,WUHU216HW,2014-01-13 05:37:00,
2014-01-12 21:42:00,49.3,45.9,30.17,WSW,248,4.7,8.7,88,0.00,,,0.00,WUHU216HW,2014-01-13 05:42:00,
2014-01-12 21:47:00,49.3,45.9,30.17,SW,225,4.7,8.7,88,0.00,,,0.00,WUHU216HW,2014-01-13 05:47:00,
2014-01-12 21:52:00,49.3,45.9,30.17,WSW,248,4.7,7.2,88,0.00,,,0.00,WUHU216HW,2014-01-13 05:52:00,
2014-01-12 21:57:00,49.3,45.9,30.18,WSW,248,4.9,6.3,88,0.00,,,0.00,WUHU216HW,2014-01-13 05:57:00,
2014-01-12 22:02:00,49.3,45.9,30.19,SSW,203,6.3,6.3,88,0.00,,,0.00,WUHU216HW,2014-01-13 06:02:00,
2014-01-12 22:07:00,49.5,46.1,30.19,South,180,3.8,6.3,88,0.00,,,0.00,WUHU216HW,2014-01-13 06:07:00,
2014-01-12 22:12:00,49.5,46.1,30.19,SSW,203,2.0,6.9,88,0.00,,,0.00,WUHU216HW,2014-01-13 06:12:00,
2014-01-12 22:17:00,49.7,46.3,30.19,WSW,248,3.1,6.9,88,0.00,,,0.00,WUHU216HW,2014-01-13 06:17:00,
2014-01-12 22:22:00,49.5,46.1,30.19,WSW,248,5.4,6.9,88,0.00,,,0.00,WUHU216HW,2014-01-13 06:22:00,
2014-01-12 22:27:00,49.5,46.1,30.19,SSE,158,4.5,5.4,88,0.00,,,0.00,WUHU216HW,2014-01-13 06:27:00,
2014-01-12 22:32:00,49.5,46.1,30.19,ESE,113,1.8,4.9,88,0.00,,,0.00,WUHU216HW,2014-01-13 06:32:00,
2014-01-12 22:37:00,49.5,46.1,30.19,WSW,248,1.8,5.4,88,0.00,,,0.00,WUHU216HW,2014-01-13 06:37:00,
2014-01-12 22:42:00,49.5,46.1,30.20,SE,135,3.4,5.4,88,0.00,,,0.00,WUHU216HW,2014-01-13 06:42:00,
2014-01-12 22:47:00,49.5,46.1,30.20,SW,225,4.9,4.9,88,0.00,,,0.00,WUHU216HW,2014-01-13 06:47:00,
2014-01-12 22:52:00,49.5,46.1,30.21,WSW,248,5.8,8.1,88,0.00,,,0.00,WUHU216HW,2014-01-13 06:52:00,
2014-01-12 22:57:00,49.7,46.3,30.22,West,270,4.5,8.1,88,0.00,,,0.00,WUHU216HW,2014-01-13 06:57:00,
2014-01-12 23:02:00,49.7,46.3,30.21,WSW,248,2.9,4.9,88,0.00,,,0.00,WUHU216HW,2014-01-13 07:02:00,
2014-01-12 23:06:00,49.5,46.1,30.21,SSE,158,4.0,4.9,88,0.00,,,0.00,WUHU216HW,2014-01-13 07:06:00,
2014-01-12 23:12:00,49.7,46.3,30.22,West,270,6.9,6.9,88,0.00,,,0.00,WUHU216HW,2014-01-13 07:12:00,
2014-01-12 23:17:00,49.5,46.1,30.22,SSW,203,5.4,6.9,88,0.00,,,0.00,WUHU216HW,2014-01-13 07:17:00,
2014-01-12 23:22:00,49.7,46.3,30.21,West,270,6.3,6.3,88,0.00,,,0.00,WUHU216HW,2014-01-13 07:22:00,
2014-01-12 23:27:00,49.7,46.3,30.21,SW,225,1.6,9.4,88,0.00,,,0.00,WUHU216HW,2014-01-13 07:27:00,
2014-01-12 23:32:00,49.7,46.3,30.22,WSW,248,7.8,9.4,88,0.00,,,0.00,WUHU216HW,2014-01-13 07:32:00,
2014-01-12 23:37:00,49.7,46.3,30.22,West,270,6.3,7.8,88,0.00,,,0.00,WUHU216HW,2014-01-13 07:37:00,
2014-01-12 23:42:00,49.7,46.3,30.22,SSE,158,1.1,7.4,88,0.00,,,0.00,WUHU216HW,2014-01-13 07:42:00,
2014-01-12 23:47:00,49.7,46.3,30.23,NNE,23,2.0,4.0,88,0.00,,,0.00,WUHU216HW,2014-01-13 07:47:00,
2014-01-12 23:52:00,49.7,46.3,30.23,WSW,248,3.4,9.8,88,0.00,,,0.00,WUHU216HW,2014-01-13 07:52:00,
2014-01-12 23:57:00,49.9,46.4,30.23,WSW,248,4.5,9.8,88,0.00,,,0.00,WUHU216HW,2014-01-13 07:57:00,